Change the Weather History Date:

Monday, August 6, 2012

  Actual Average Record
Temperature  
Mean Temperature 80 °F 83 °F  
Max Temperature 87 °F 91 °F 96 °F (1942)
Min Temperature 73 °F 76 °F 68 °F (1950)
Degree Days  
Heating Degree Days 0 0  
Month to date heating degree days 0 0  
Since 1 June heating degree days 0 0  
Since 1 July heating degree days 0 0  
Cooling Degree Days 15 18  
Month to date cooling degree days 109 108  
Year to date cooling degree days 2446 2256  
Since 1 June cooling degree days 1157 1147  
Growing Degree Days 30 (Base 50)    
Moisture  
Dew Point 75 °F    
Average Humidity 81    
Maximum Humidity 94    
Minimum Humidity 68    
Precipitation  
Precipitation 1.93 in 0.23 in 1.93 in (2012)
Month to date precipitation 3.33 1.34  
Year to date precipitation 42.14 34.11  
Snow  
Snow 0.00 in - - ()
Month to date snowfall 0.0  
Since 1 June snowfall 0.0  
Since 1 July snowfall 0.0  
Snow Depth 0.00 in    
Sea Level Pressure  
Sea Level Pressure 30.05 in    
Wind  
Wind Speed 9 mph (SE)    
Max Wind Speed 25 mph    
Max Gust Speed 36 mph    
Visibility 8 miles    
Events Fog , Rain , Thunderstorm    
T = Trace of Precipitation, MM = Missing Value Source: NWS Daily Summary

Daily Weather History Graph

Daily Weather History Graph

Search for Another Location

Airport or City:

Trip Planner

Search our weather history database for the weather conditions in past years. The results will help you decide how hot, cold, wet, or windy it might be!

Date:

Astronomy

Aug. 06, 2012 Rise Set
Actual Time 6:48 AM EDT 8:04 PM EDT
Civil Twilight 6:23 AM EDT 8:28 PM EDT
Nautical Twilight 5:53 AM EDT 8:57 PM EDT
Astronomical Twilight 5:23 AM EDT 9:28 PM EDT
Moon 10:49 PM EDT (8/6) 11:00 AM EDT (8/6)
Length of Visible Light 14h 05m
Length of Day
13h 16m
Waning Gibbous, 78% of the Moon is Illuminated
Aug 6
Waning Gibbous
Aug 9
Last Quarter
Aug 17
New
Aug 24
First Quarter
Aug 31
Full

Hourly Weather History & Observations

Time (EDT) Temp. Heat Index Dew Point Humidity Pressure Visibility Wind Dir Wind Speed Gust Speed Precip Events Conditions
12:53 AM 80.1 °F 85.1 °F 75.0 °F 85% 30.07 in 10.0 mi SE 4.6 mph - 0.00 in   Mostly Cloudy
1:53 AM 82.9 °F 90.2 °F 75.0 °F 77% 30.06 in 10.0 mi SE 10.4 mph - N/A   Mostly Cloudy
2:53 AM 82.9 °F 90.2 °F 75.0 °F 77% 30.04 in 10.0 mi SE 8.1 mph - N/A   Mostly Cloudy
3:53 AM 82.9 °F 90.8 °F 75.9 °F 79% 30.03 in 10.0 mi SE 9.2 mph - N/A   Mostly Cloudy
4:53 AM 82.9 °F 90.8 °F 75.9 °F 79% 30.02 in 10.0 mi ESE 9.2 mph - N/A   Mostly Cloudy
5:53 AM 81.0 °F 87.3 °F 75.9 °F 85% 30.02 in 10.0 mi SE 9.2 mph - 0.09 in Rain Light Rain
6:06 AM 78.8 °F - 73.4 °F 83% 30.04 in 10.0 mi SSE 17.3 mph 29.9 mph 0.00 in Rain Light Rain
6:36 AM 77.0 °F - 75.2 °F 94% 30.05 in 10.0 mi ESE 6.9 mph - 0.03 in Rain Light Rain
6:53 AM 78.1 °F - 75.0 °F 90% 30.06 in 8.0 mi Calm Calm - 0.07 in Rain Light Rain
7:34 AM 75.2 °F - 73.4 °F 94% 30.06 in 10.0 mi Calm Calm - 0.03 in Rain , Thunderstorm Light Thunderstorms and Rain
7:53 AM 77.0 °F - 75.0 °F 94% 30.08 in 3.0 mi East 8.1 mph - 0.08 in Rain , Thunderstorm Thunderstorms and Rain
8:24 AM 75.2 °F - 73.4 °F 94% 30.07 in 2.5 mi ESE 9.2 mph - 0.08 in Rain , Thunderstorm Heavy Thunderstorms and Rain
8:53 AM 77.0 °F - 73.9 °F 90% 30.08 in 4.0 mi East 10.4 mph - 0.11 in Rain Rain
9:53 AM 77.0 °F - 73.9 °F 90% 30.08 in 10.0 mi ESE 8.1 mph - 0.12 in Rain Light Rain
10:53 AM 79.0 °F - 75.9 °F 90% 30.08 in 10.0 mi ESE 6.9 mph - 0.07 in Rain Light Rain
11:53 AM 80.1 °F 85.4 °F 75.9 °F 87% 30.07 in 10.0 mi East 12.7 mph - 0.01 in Rain Light Rain
12:53 PM 82.0 °F 90.2 °F 77.0 °F 85% 30.06 in 10.0 mi ESE 12.7 mph - 0.00 in Rain Light Rain
1:47 PM 84.2 °F 96.1 °F 78.8 °F 84% 30.05 in 10.0 mi SE 13.8 mph - 0.00 in   Mostly Cloudy
1:53 PM 84.0 °F 93.7 °F 77.0 °F 79% 30.05 in 10.0 mi ESE 15.0 mph - 0.00 in   Mostly Cloudy
2:45 PM 84.2 °F 92.3 °F 75.2 °F 74% 30.04 in 10.0 mi ESE 13.8 mph - N/A   Mostly Cloudy
2:53 PM 84.0 °F 92.6 °F 75.9 °F 76% 30.04 in 10.0 mi SE 15.0 mph - N/A   Mostly Cloudy
3:53 PM 86.0 °F 95.1 °F 75.0 °F 70% 30.02 in 10.0 mi ESE 11.5 mph - N/A   Mostly Cloudy
4:53 PM 87.1 °F 97.3 °F 75.9 °F 69% 30.00 in 10.0 mi SE 11.5 mph - N/A   Scattered Clouds
5:53 PM 84.9 °F 94.1 °F 75.9 °F 74% 30.00 in 10.0 mi ESE 15.0 mph - N/A   Scattered Clouds
6:17 PM 82.4 °F 88.2 °F 73.4 °F 74% 30.01 in 10.0 mi SSW 10.4 mph - N/A   Mostly Cloudy
6:53 PM 79.0 °F - 73.9 °F 84% 30.01 in 10.0 mi South 3.5 mph - N/A   Mostly Cloudy
7:22 PM 78.8 °F - 75.2 °F 89% 30.02 in 10.0 mi Calm Calm - N/A   Mostly Cloudy
7:53 PM 82.0 °F 88.6 °F 75.0 °F 79% 30.03 in 10.0 mi SE 8.1 mph - N/A   Mostly Cloudy
8:53 PM 80.1 °F 84.2 °F 73.0 °F 79% 30.04 in 10.0 mi Calm Calm - N/A   Mostly Cloudy
9:53 PM 79.0 °F - 75.9 °F 90% 30.04 in 8.0 mi NNW 6.9 mph - 0.03 in Rain Light Rain
10:22 PM 78.8 °F - 77.0 °F 94% 30.05 in 10.0 mi NW 4.6 mph - 0.00 in Thunderstorm Thunderstorm
10:39 PM 78.8 °F - 77.0 °F 94% 30.06 in 1.2 mi SSW 6.9 mph - 0.04 in Rain , Thunderstorm Heavy Thunderstorms and Rain
10:47 PM 77.0 °F - 75.2 °F 94% 30.07 in 1.0 mi SSW 23.0 mph 27.6 mph 0.23 in Rain , Thunderstorm Heavy Thunderstorms and Rain
10:53 PM 75.0 °F - 73.0 °F 94% 30.08 in 0.2 mi South 24.2 mph 35.7 mph 0.40 in Fog , Rain , Thunderstorm Heavy Thunderstorms and Rain
11:16 PM 73.4 °F - 71.6 °F 94% 30.07 in 2.0 mi WNW 6.9 mph - 0.88 in Rain , Thunderstorm Heavy Thunderstorms and Rain
11:23 PM 73.4 °F - 71.6 °F 94% 30.07 in 10.0 mi West 3.5 mph - 0.90 in Rain , Thunderstorm Light Thunderstorms and Rain
11:53 PM 73.9 °F - 72.0 °F 93% 30.06 in 10.0 mi North 3.5 mph - 0.93 in Rain , Thunderstorm Thunderstorms and Rain